Regional Weather Roundup
Issued by NWS Jackson, KY

Home | Current Version | Previous Version | Graphics & Text | Print | Product List | Glossary On
Versions: 1 2 3 4 5 6 7 8 9 10 11 12 13 14 15 16 17 18 19 20 21 22 23 24 25 26 27 28 29 30 31 32 33 34 35 36 37 38 39 40 41 42 43 44 45 46 47 48 49 50
000
ASUS43 KJKL 270010
RWRJKL

EAST KENTUCKY HOURLY WEATHER ROUNDUP
NATIONAL WEATHER SERVICE JACKSON KY
700 PM EST THU FEB 26 2015

NOTE: "FAIR" INDICATES FEW OR NO CLOUDS BELOW 12,000 FEET WITH
NO SIGNIFICANT WEATHER AND/OR OBSTRUCTIONS TO VISIBILITY.

* THESE REPORTS ARE NOT UNDER NWS QUALITY CONTROL AND MAY NOT
  REPORT WEATHER SUCH AS PRECIPITATION AND FOG.

KYZ079-080-083-085-087-088-110-112-115-119-120-270100
...EASTERN KENTUCKY...

CITY           SKY/WX    TMP DP  RH WIND       PRES   REMARKS
JACKSON        CLOUDY    31  15  52 NW7       30.08R WCI  24
6HR MIN TEMP:  31; 6HR MAX TEMP:  41;

LONDON         PTCLDY    33  16  49 NW7       30.09R WCI  27
6HR MIN TEMP:  33; 6HR MAX TEMP:  41;

SOMERSET*      CLOUDY    32  18  55 NW5       30.13R WCI  27
MONTICELLO*    CLOUDY    35  22  59 CALM      30.14R
6HR MIN TEMP:  35; 6HR MAX TEMP:  42;

MIDDLESBORO*   PTCLDY    34  23  63 W6        30.09R WCI  29
6HR MIN TEMP:  34; 6HR MAX TEMP:  38;

HAZARD APT*    MOCLDY    34  19  55 NW7       30.08R WCI  28
BLACK MTN*       N/A     23  21  93 CALM        N/A
PIKEVILLE APT* MOCLDY    32  18  55 NW10      30.04R WCI  24
BIG SANDY*     CLOUDY    34  18  52 NW8       30.07R WCI  27
6HR MIN TEMP:  34; 6HR MAX TEMP:  40;

MOREHEAD APT*  CLOUDY    25  14  63 NW7       30.16R WCI  17
$$

KYZ035-036-041-042-044-050-067-078-099-270100
...CENTRAL KENTUCKY...

CITY           SKY/WX    TMP DP  RH WIND       PRES   REMARKS
MT STERLING*   CLOUDY    28  18  64 N10       30.15R WCI  19
FLEMING/MASON* FLURRIES  21  14  73 N9        30.18R WCI  11
DANVILLE*      CLOUDY    30  21  69 N12       30.15R WCI  21
RICHMOND*      CLOUDY    30  18  59 N6        30.12R WCI  24
LEXINGTON      FLURRIES  26  18  71 N14       30.16R WCI  14
6HR MIN TEMP:  26; 6HR MAX TEMP:  33; 6HR PCP: TRACE;

FRANKFORT      LGT SNOW  24  18  77 NW8       30.17R WCI  15
6HR MIN TEMP:  24; 6HR MAX TEMP:  34; 6HR PCP: TRACE;

$$

KYZ091>093-OHZ055-061-077-WVZ005-015-034-035-042-270100
...SOUTHERN OHIO/WEST VIRGINIA...

CITY           SKY/WX    TMP DP  RH WIND       PRES   REMARKS
COVINGTON      FLURRIES  18  10  71 N12       30.21R WCI   5
COLUMBUS       LGT SNOW  14   5  67 N14       30.19R WCI  -1
DAYTON         LGT SNOW  14   8  77 N10       30.23R WCI   1
WILMINGTON     CLOUDY    14   7  73 N15       30.18R WCI  -1
HUNTINGTON     CLOUDY    28  15  58 N12       30.10R WCI  18
CHARLESTON     MOCLDY    32  14  47 NW6       30.07R WCI  26
PINEVILLE*     MOCLDY    31  30  96 MISG      30.06R
BECKLEY        CLOUDY    28  19  69 NW5       29.98R WCI  23
BLUEFIELD      CLOUDY    29  22  75 NW6       29.98R WCI  23
$$

VAZ002-007-008-TNZ017-027-036-066-071-270100
...SOUTHWEST VIRGINIA/EAST TENNESSEE...

CITY           SKY/WX    TMP DP  RH WIND       PRES   REMARKS
WISE*          MOCLDY    27  18  69 SW5       30.00R WCI  21
JONESVILLE*    MOCLDY    32  27  80 CALM      30.08R
ABINGDON*      CLOUDY    34  29  81 NW3       30.02R
BRISTOL        CLOUDY    34  30  85 SW9       30.05R WCI  27
KNOXVILLE      CLOUDY    35  30  82 S6        30.09R WCI  30
OAK RIDGE      PTCLDY    37  30  75 CALM      30.10R
CROSSVILLE     MOCLDY    34  17  50 NW5       30.06R WCI  30
NASHVILLE      CLOUDY    34  23  64 NW9       30.19R WCI  27
$$

...KEY TO REMARKS...
VSB - VISIBILITY IN MILES
WCI - WIND CHILL INDEX
HX  - HEAT INDEX

$$



USA.gov is the U.S. government's official web portal to all federal, state and local government web resources and services.